COSMOS 252 DEB, 19309

Orbit data source: Space-Track

COSMOS 252 DEB, 19309 is space debris in LEO originally from a launch on Fri, 01 Nov 1968 UTC launched from the Tyuratam Missile And Space Complex (TTMTR). Debris objects in space refer to the collection of defunct objects orbiting the Earth. Examples of debris include non-operational satellites, rocket bodies, and fragments generated from explosions, collisions, or faulty payload assembly.

Loading next visibility...
Identifier
19309, 1968-097ES
Orbit
LEO
Country
Flag of CISCIS
Related business
Manufacturer
Unknown
Mission
Spacecraft
Bus & Motor
Unknown
Mass
Unknown
Launch date (UTC)
1968-11-01 (58 years ago)
Launch vehicle
Unknown
Launch site
Tyuratam Missile And Space Complex (TTMTR)
Object type
Payload
Rocket body
Debris
Shape & HBR
Unknown shape, 0.1 m
Radar Cross Section
Medium (>0.1 m² and <1 m²)

Expand to show TLE details & history
Last TLE update: 1 day ago

TLE from 1 day ago
0 COSMOS 252 DEB
1 19309U 68097ES  26174.10151940  .00000130  00000-0  10333-3 0  9990
2 19309  62.3837 302.6587 0885678 270.1087  79.8568 13.04552580671988
Epoch: 2026-06-23T02:26Z
TLE epoch observation values (Epoch: 2026-06-23T02:26:11.276Z)
Latitude
0.00003°
Longitude
-5.16618°
Altitude
1,186.08 km
Speed
7.29 km/s
True Right ascension
20h 10m 38s
True Declination
0° 00' 00"
Sunlit
Object was in full shadow at epoch
Visualization orbit readout
Latitude
Unknown
Longitude
Unknown
Altitude
Unknown
Speed
Unknown
Apparent Right ascension
Unknown
Apparent Declination
Unknown
Sunlit
N/A
Visualization observer readout
Local Sidereal Time
21:07:45
Azimuth
Unknown
Elevation
Unknown
Doppler factor
Unknown
Orbital elements
Apogee altitude
1,918.282 km
Perigee altitude
568.259 km
Semi-major axis
7,621.408 km
Eccentricity
0.08857
Inclination
62.3837°
RAAN
302.6587°
Arg. of periapsis
270.1087°
True anomaly
89.99255°
Mean anomaly
79.8568°
Eccentric anomaly
84.91136°
Mean motion
3.26205 °/min
Orbital period
110.36 mins
BSTAR
0.00010333
Loading maneuver chart data...
Computing Atmospheric mass density...
Loading historical data...
Loading historical data...
Loading historical data...
Loading historical data...
Loading historical data...
Loading historical data...
Loading historical data...

Documentation

Showing up to 5 results
|